When you browse on this site, cookies collect data to enhance your experience and personalize the content and advertising you see.
Visit our Privacy Policy to learn more. By continuing to use the site, you agree to this use of cookies and data.
  • In Slovakia
  • List of Countries
  • For 7 days
  • Water Temperature
  • Satellite Maps
  • Weather Map
  • Weather Widgets
  • user-avatar
    Login

    Hourly Weather Viedma

    Today, 27 May, Monday

    Time Temperature Precipitation Wind Pressure Humidity
    00:00 +8°C° 0 mm 2 mps 758 mmHg 64%
    01:00 +7°C° 0 mm 2 mps 757 mmHg 65%
    02:00 +7°C° 0 mm 2 mps 757 mmHg 65%
    03:00 +7°C° 0 mm 3 mps 757 mmHg 66%
    04:00 +7°C° 0 mm 3 mps 756 mmHg 68%
    05:00 +7°C° 0 mm 3 mps 756 mmHg 69%
    06:00 +6°C° 0 mm 4 mps 756 mmHg 68%
    07:00 +6°C° 0 mm 4 mps 755 mmHg 66%
    08:00 +6°C° 0 mm 5 mps 755 mmHg 65%
    09:00 +9°C° 0 mm 6 mps 755 mmHg 59%
    10:00 +11°C° 0 mm 7 mps 755 mmHg 52%
    11:00 +13°C° 0 mm 8 mps 755 mmHg 46%
    12:00 +15°C° 0 mm 8 mps 755 mmHg 42%
    13:00 +16°C° 0 mm 8 mps 754 mmHg 39%
    14:00 +17°C° 0 mm 8 mps 753 mmHg 36%
    15:00 +16°C° 0 mm 7 mps 753 mmHg 38%
    16:00 +15°C° 0 mm 5 mps 753 mmHg 41%
    17:00 +13°C° 0 mm 4 mps 753 mmHg 43%
    18:00 +13°C° 0 mm 3 mps 754 mmHg 45%
    19:00 +12°C° 0 mm 3 mps 754 mmHg 47%
    20:00 +11°C° 0 mm 3 mps 754 mmHg 49%
    21:00 +10°C° 0 mm 2 mps 754 mmHg 53%
    22:00 +11°C° 0 mm 1 mps 755 mmHg 57%
    23:00 +10°C° 0 mm 1 mps 755 mmHg 61%

    Tomorrow, 28 May, Tuesday

    Time Temperature Precipitation Wind Pressure Humidity
    00:00 +10°C° 0 mm 1 mps 755 mmHg 61%
    01:00 +10°C° 0 mm 1 mps 755 mmHg 61%
    02:00 +9°C° 0 mm 1 mps 755 mmHg 61%
    03:00 +10°C° 0 mm 1 mps 755 mmHg 60%
    04:00 +9°C° 0 mm 2 mps 755 mmHg 59%
    05:00 +9°C° 0 mm 2 mps 755 mmHg 57%
    06:00 +9°C° 0 mm 2 mps 756 mmHg 58%
    07:00 +9°C° 0 mm 3 mps 756 mmHg 59%
    08:00 +10°C° 0 mm 3 mps 756 mmHg 60%
    09:00 +11°C° 0 mm 4 mps 757 mmHg 54%
    10:00 +12°C° 0 mm 5 mps 757 mmHg 49%
    11:00 +14°C° 0 mm 6 mps 758 mmHg 43%
    12:00 +12°C° 0 mm 7 mps 758 mmHg 45%
    13:00 +12°C° 0 mm 7 mps 758 mmHg 47%
    14:00 +11°C° 0 mm 7 mps 758 mmHg 49%
    15:00 +10°C° 0 mm 7 mps 758 mmHg 51%
    16:00 +10°C° 0 mm 6 mps 758 mmHg 54%
    17:00 +9°C° 0 mm 6 mps 759 mmHg 56%
    18:00 +8°C° 0 mm 5 mps 759 mmHg 59%
    19:00 +8°C° 0 mm 5 mps 760 mmHg 62%
    20:00 +7°C° 0 mm 4 mps 760 mmHg 65%
    21:00 +7°C° 0 mm 4 mps 761 mmHg 68%
    22:00 +7°C° 0 mm 4 mps 761 mmHg 71%
    23:00 +7°C° 0 mm 4 mps 761 mmHg 74%

    Day after tomorrow, 29 May, Wednesday

    Time Temperature Precipitation Wind Pressure Humidity
    00:00 +6°C° 0 mm 4 mps 761 mmHg 73%
    01:00 +7°C° 0 mm 3 mps 761 mmHg 72%
    02:00 +7°C° 0 mm 3 mps 761 mmHg 72%
    03:00 +7°C° 0 mm 3 mps 761 mmHg 70%
    04:00 +7°C° 0 mm 3 mps 761 mmHg 69%
    05:00 +6°C° 0 mm 2 mps 762 mmHg 68%
    06:00 +6°C° 0 mm 2 mps 762 mmHg 67%
    07:00 +6°C° 0 mm 2 mps 762 mmHg 67%
    08:00 +6°C° 0 mm 2 mps 762 mmHg 67%
    09:00 +8°C° 0 mm 2 mps 762 mmHg 60%
    10:00 +9°C° 0 mm 3 mps 763 mmHg 54%
    11:00 +10°C° 0 mm 3 mps 763 mmHg 48%
    12:00 +11°C° 0 mm 3 mps 762 mmHg 47%
    13:00 +11°C° 0 mm 3 mps 762 mmHg 45%
    14:00 +11°C° 0 mm 3 mps 762 mmHg 44%
    15:00 +10°C° 0 mm 3 mps 762 mmHg 47%
    16:00 +9°C° 0 mm 2 mps 762 mmHg 51%
    17:00 +8°C° 0 mm 2 mps 762 mmHg 54%
    18:00 +8°C° 0 mm 2 mps 762 mmHg 56%
    19:00 +7°C° 0 mm 2 mps 762 mmHg 57%
    20:00 +8°C° 0 mm 1 mps 763 mmHg 59%
    21:00 +8°C° 0 mm 1 mps 763 mmHg 59%
    22:00 +8°C° 0 mm 1 mps 763 mmHg 58%
    23:00 +8°C° 0 mm 1 mps 763 mmHg 57%

    30 May, Thursday

    Time Temperature Precipitation Wind Pressure Humidity
    00:00 +8°C° 0 mm 1 mps 763 mmHg 57%
    01:00 +8°C° 0 mm 1 mps 764 mmHg 57%
    02:00 +8°C° 0 mm 1 mps 764 mmHg 57%
    03:00 +8°C° 0 mm 1 mps 764 mmHg 58%
    04:00 +8°C° 0 mm 1 mps 764 mmHg 59%
    05:00 +6°C° 0 mm 2 mps 763 mmHg 60%
    06:00 +7°C° 0 mm 1 mps 764 mmHg 61%
    07:00 +7°C° 0 mm 1 mps 764 mmHg 63%
    08:00 +7°C° 0 mm 1 mps 764 mmHg 64%
    09:00 +8°C° 0 mm 1 mps 764 mmHg 59%
    10:00 +10°C° 0 mm 1 mps 764 mmHg 54%
    11:00 +12°C° 0 mm 1 mps 764 mmHg 49%
    12:00 +12°C° 0 mm 1 mps 764 mmHg 48%
    13:00 +11°C° 0 mm 0 mps 763 mmHg 47%
    14:00 +11°C° 0 mm 0 mps 763 mmHg 45%
    15:00 +11°C° 0 mm 1 mps 763 mmHg 49%
    16:00 +10°C° 0 mm 1 mps 762 mmHg 53%
    17:00 +10°C° 0 mm 1 mps 762 mmHg 56%
    18:00 +9°C° 0 mm 1 mps 762 mmHg 59%
    19:00 +9°C° 0 mm 1 mps 762 mmHg 62%
    20:00 +7°C° 0 mm 2 mps 762 mmHg 64%
    21:00 +7°C° 0 mm 2 mps 762 mmHg 63%
    22:00 +7°C° 0 mm 2 mps 762 mmHg 61%
    23:00 +8°C° 0 mm 2 mps 762 mmHg 60%

    31 May, Friday

    Time Temperature Precipitation Wind Pressure Humidity
    00:00 +7°C° 0 mm 2 mps 762 mmHg 65%
    01:00 +7°C° 0 mm 2 mps 761 mmHg 70%
    02:00 +7°C° 0 mm 2 mps 761 mmHg 76%
    03:00 +7°C° 0 mm 2 mps 761 mmHg 79%
    04:00 +7°C° 0 mm 3 mps 760 mmHg 82%
    05:00 +7°C° 0 mm 3 mps 760 mmHg 85%
    06:00 +7°C° 0 mm 3 mps 760 mmHg 84%
    07:00 +7°C° 0 mm 3 mps 759 mmHg 83%
    08:00 +6°C° 0 mm 4 mps 759 mmHg 82%
    09:00 +6°C° 0 mm 4 mps 759 mmHg 79%
    10:00 +7°C° 0 mm 5 mps 759 mmHg 77%
    11:00 +8°C° 0 mm 5 mps 759 mmHg 74%
    12:00 +9°C° 0 mm 5 mps 758 mmHg 71%
    13:00 +9°C° 0 mm 5 mps 757 mmHg 68%
    14:00 +10°C° 0 mm 5 mps 756 mmHg 65%
    15:00 +11°C° 0 mm 4 mps 756 mmHg 66%
    16:00 +11°C° 0 mm 4 mps 756 mmHg 68%
    17:00 +11°C° 0 mm 4 mps 755 mmHg 69%
    18:00 +11°C° 0 mm 4 mps 755 mmHg 71%
    19:00 +10°C° 0 mm 4 mps 755 mmHg 73%
    20:00 +10°C° 0 mm 4 mps 755 mmHg 75%
    21:00 +10°C° 0 mm 4 mps 755 mmHg 75%
    22:00 +10°C° 0 mm 4 mps 755 mmHg 76%
    23:00 +10°C° 0 mm 4 mps 755 mmHg 76%

    1 June, Saturday

    Time Temperature Precipitation Wind Pressure Humidity
    00:00 +10°C° 0 mm 4 mps 755 mmHg 78%
    01:00 +8°C° 0 mm 4 mps 755 mmHg 80%
    02:00 +8°C° 0 mm 4 mps 755 mmHg 83%
    03:00 +9°C° 0 mm 3 mps 754 mmHg 84%
    04:00 +9°C° 0 mm 3 mps 754 mmHg 86%
    05:00 +9°C° 0 mm 2 mps 754 mmHg 87%
    06:00 +9°C° 0 mm 2 mps 755 mmHg 89%
    07:00 +9°C° 0 mm 2 mps 755 mmHg 90%
    08:00 +9°C° 0 mm 2 mps 755 mmHg 91%
    09:00 +11°C° 0.1 mm 1 mps 755 mmHg 86%
    10:00 +12°C° 0.1 mm 1 mps 755 mmHg 82%
    11:00 +12°C° 0.1 mm 0 mps 755 mmHg 78%
    12:00 +13°C° 0.1 mm 1 mps 755 mmHg 75%
    13:00 +14°C° 0.1 mm 1 mps 755 mmHg 72%
    14:00 +14°C° 0.1 mm 1 mps 755 mmHg 70%
    15:00 +13°C° 0.2 mm 1 mps 755 mmHg 74%
    16:00 +13°C° 0.2 mm 2 mps 756 mmHg 78%
    17:00 +12°C° 0.2 mm 2 mps 756 mmHg 82%
    18:00 +11°C° 0.2 mm 3 mps 757 mmHg 84%
    19:00 +10°C° 0.2 mm 3 mps 758 mmHg 87%
    20:00 +10°C° 0.2 mm 3 mps 759 mmHg 90%
    21:00 +10°C° 0.1 mm 4 mps 759 mmHg 88%
    22:00 +11°C° 0.1 mm 4 mps 760 mmHg 86%
    23:00 +10°C° 0.1 mm 5 mps 761 mmHg 84%
    Show more